Vorticity
2 5 2 7 10 13 2 2 6 3 2 3 2 3 3 3 4 5 5 5 5 6 6 7 9 9 7 7 5 4 5 8 10 8 7 8 9 7 4 4 6 8 10
6 1 8 14 5 2 4 3 1 1 3 3 4 4 4 4 4 5 6 6 7 8 8 8 9 9 9 9 8 6 5 8 10 10 8 7 7 7 7 5 4 3 4
2 16 10 2 2 5 3 1 2 2 3 4 4 5 4 4 4 6 5 6 8 8 7 7 7 7 6 8 9 8 8 8 12 11 11 8 9 10 10 9 7 5 4
11 4 0 4 4 1 1 2 3 3 4 4 5 6 5 6 6 7 8 8 7 7 7 8 6 6 7 8 7 3 7 10 10 11 8 8 6 5 7 7 7 10 8
2 3 4 3 -0 1 2 3 3 4 4 5 5 5 7 6 7 9 10 8 8 9 9 8 8 10 9 7 5 6 11 12 11 10 8 6 3 2 0 1 2 3 5
3 3 2 1 2 3 3 4 5 4 5 7 6 9 7 7 9 10 9 8 9 8 9 9 8 6 4 7 13 15 15 10 7 6 5 5 4 3 1 -1 -2 -0 2
2 2 3 2 3 4 4 3 4 5 6 5 4 10 13 12 11 9 7 7 8 8 7 6 4 7 10 10 7 5 4 4 5 4 4 4 4 6 7 2 2 -0 -0
3 3 2 3 4 4 4 5 6 2 11 1 -10 2 6 9 7 7 8 9 9 6 6 6 9 8 8 7 6 4 5 4 2 2 2 4 3 2 1 3 1 4 3
3 3 3 4 5 4 5 9 5 13 10 9 -0 -0 3 7 7 9 8 7 6 7 9 9 7 5 6 6 6 5 4 4 5 4 1 1 0 2 8 8 6 6 8
2 3 5 2 4 8 1 10 3 5 9 12 7 2 10 7 8 6 6 7 7 8 6 3 4 4 5 4 5 8 10 9 11 11 10 9 8 7 5 4 6 11 21
2 2 4 6 9 4 9 9 8 3 -1 6 6 6 7 8 7 8 7 7 6 2 3 3 5 7 12 13 7 5 6 7 11 15 19 21 22 24 19 17 17 15 14
3 4 9 2 5 11 6 10 4 0 -2 6 7 6 8 6 7 6 6 2 3 4 6 9 10 7 8 13 14 13 13 18 21 21 20 19 19 18 20 23 21 20 17
5 11 6 -5 9 13 6 11 3 -1 -5 8 7 6 7 7 6 3 3 4 6 9 10 7 10 11 8 18 24 26 25 24 23 25 25 24 26 28 28 29 29 29 28
8 9 6 -4 5 18 -7 4 7 14 4 8 7 7 6 6 3 4 7 9 11 6 7 7 11 16 27 26 22 20 21 24 23 21 22 22 21 21 21 22 24 25 26
5 -2 2 9 1 -3 2 11 7 6 8 6 7 6 6 3 5 9 12 8 4 9 11 13 20 23 17 16 19 22 26 23 19 17 17 19 19 19 18 16 14 14 14
-9 12 -4 5 25 -40 10 9 6 7 8 8 6 6 4 7 10 11 7 6 12 11 13 15 24 11 12 19 21 24 21 17 17 20 20 17 15 11 9 8 9 11 13
3 6 -8 2 -2 4 11 7 7 7 7 7 6 4 9 10 8 7 7 11 14 12 8 30 12 7 15 21 21 22 17 16 19 16 13 10 10 9 8 11 17 20 20
-15 2 1 6 -3 10 6 7 6 8 8 5 6 12 8 7 8 11 12 14 12 7 10 20 5 9 21 20 20 18 16 17 16 12 11 9 9 14 24 23 18 16 15
-1 6 -4 2 12 6 6 8 9 8 4 9 9 7 5 7 11 14 10 12 8 4 26 5 5 14 24 19 19 16 16 16 12 9 8 10 16 16 16 18 18 18 16
7 -0 13 7 7 7 10 9 7 4 10 7 7 6 8 12 12 15 10 11 6 25 7 3 8 20 23 18 17 16 16 15 10 9 8 9 14 14 16 20 18 15 13
5 12 6 7 8 12 8 6 6 8 6 7 7 8 10 11 13 13 10 9 20 9 3 5 17 24 20 16 16 14 16 12 9 7 7 8 12 17 19 19 16 14 12
12 8 8 9 11 7 6 7 7 7 6 6 6 8 9 15 13 13 11 17 8 5 4 12 22 23 17 14 16 13 15 12 11 6 7 10 12 17 18 16 15 14 13
9 8 10 8 8 6 7 9 6 6 6 6 6 10 15 16 15 16 14 7 5 4 11 17 24 20 15 12 15 12 13 11 8 6 7 8 10 17 16 16 14 12 12
9 9 7 9 4 10 7 6 6 6 6 7 9 14 18 17 17 10 6 5 5 12 17 21 23 17 13 13 12 12 13 12 8 7 8 6 11 17 17 16 13 12 9
8 9 7 6 9 7 5 6 6 5 5 6 13 20 20 13 8 5 7 11 17 21 20 26 21 16 12 13 11 10 13 12 10 8 7 6 10 16 19 14 12 11 9
10 5 7 8 7 6 5 5 4 5 6 8 19 23 14 6 7 12 18 22 22 21 24 25 21 16 13 13 10 9 12 12 10 9 9 9 11 17 23 11 10 8 10
Height
5811 5812 5812 5812 5812 5813 5812 5812 5810 5809 5808 5806 5804 5802 5799 5796 5792 5789 5786 5783 5779 5775 5772 5769 5767 5764 5761 5757 5755 5752 5749 5746 5743 5741 5740 5741 5742 5742 5742 5742 5742 5742 5743
5808 5808 5807 5808 5809 5810 5808 5807 5805 5803 5803 5802 5799 5795 5792 5788 5784 5780 5777 5774 5769 5765 5762 5758 5755 5753 5750 5748 5745 5742 5739 5736 5734 5732 5730 5729 5729 5730 5731 5731 5732 5733 5734
5803 5804 5804 5804 5805 5805 5804 5802 5800 5799 5797 5794 5791 5788 5783 5779 5775 5771 5766 5762 5757 5754 5750 5747 5744 5741 5738 5735 5733 5731 5728 5725 5722 5721 5720 5718 5717 5717 5718 5719 5720 5721 5722
5800 5801 5801 5800 5800 5800 5799 5797 5794 5791 5789 5786 5782 5779 5774 5769 5764 5760 5755 5750 5746 5742 5739 5736 5733 5730 5726 5723 5719 5717 5715 5713 5711 5710 5708 5708 5706 5705 5704 5706 5708 5709 5710
5799 5798 5798 5797 5796 5795 5793 5789 5786 5783 5780 5776 5772 5767 5762 5757 5752 5748 5743 5739 5734 5731 5728 5724 5721 5718 5714 5710 5707 5703 5700 5698 5697 5697 5696 5695 5694 5694 5694 5693 5693 5694 5696
5794 5795 5794 5792 5791 5788 5785 5780 5778 5774 5770 5766 5761 5756 5751 5746 5742 5737 5732 5728 5723 5718 5714 5710 5706 5702 5699 5696 5693 5690 5686 5684 5682 5680 5680 5679 5679 5679 5680 5681 5679 5679 5679
5791 5790 5788 5786 5783 5780 5776 5773 5769 5764 5760 5755 5750 5746 5742 5737 5732 5726 5721 5716 5711 5706 5701 5697 5692 5687 5683 5679 5676 5673 5671 5668 5666 5663 5660 5658 5657 5658 5657 5658 5659 5661 5662
5787 5783 5780 5778 5774 5772 5768 5763 5758 5754 5749 5744 5740 5735 5729 5724 5719 5714 5708 5703 5697 5691 5686 5681 5676 5672 5668 5664 5661 5657 5653 5649 5645 5642 5639 5636 5633 5631 5632 5633 5635 5634 5637
5778 5775 5772 5769 5766 5762 5757 5753 5749 5744 5739 5734 5728 5722 5716 5711 5705 5700 5694 5687 5681 5676 5670 5665 5660 5656 5651 5646 5641 5637 5632 5628 5624 5620 5615 5611 5607 5604 5601 5601 5601 5605 5609
5769 5767 5764 5760 5756 5752 5747 5743 5738 5733 5728 5722 5717 5711 5704 5697 5690 5685 5679 5673 5667 5660 5655 5648 5642 5636 5631 5625 5619 5613 5608 5602 5597 5592 5588 5583 5579 5575 5572 5571 5571 5569 5572
5762 5759 5755 5750 5746 5742 5737 5732 5726 5720 5715 5710 5704 5697 5690 5683 5676 5670 5665 5657 5650 5642 5635 5628 5620 5614 5605 5598 5590 5584 5577 5571 5565 5559 5555 5551 5547 5543 5541 5539 5537 5536 5539
5752 5749 5745 5741 5736 5732 5726 5719 5714 5709 5703 5697 5691 5683 5675 5667 5660 5653 5646 5639 5631 5622 5614 5606 5596 5587 5579 5571 5562 5554 5546 5538 5531 5526 5521 5518 5515 5512 5510 5509 5508 5507 5508
5744 5739 5735 5731 5727 5721 5715 5710 5703 5697 5691 5683 5676 5668 5660 5652 5643 5634 5626 5620 5613 5603 5594 5585 5573 5563 5554 5542 5532 5522 5515 5507 5501 5497 5493 5490 5486 5483 5481 5481 5481 5480 5481
5733 5729 5725 5722 5718 5712 5706 5701 5694 5686 5677 5670 5661 5652 5644 5635 5626 5618 5609 5601 5593 5583 5573 5564 5551 5541 5529 5518 5507 5498 5489 5483 5478 5474 5471 5467 5464 5462 5460 5459 5460 5459 5459
5724 5721 5718 5712 5707 5700 5695 5688 5680 5673 5664 5655 5647 5638 5629 5620 5610 5601 5591 5581 5570 5562 5555 5540 5529 5517 5506 5496 5486 5477 5470 5465 5460 5455 5452 5449 5447 5445 5443 5442 5441 5440 5440
5717 5713 5707 5703 5696 5689 5683 5675 5666 5658 5650 5641 5632 5623 5614 5605 5595 5585 5574 5562 5550 5540 5533 5520 5509 5498 5487 5477 5467 5460 5454 5449 5444 5440 5437 5435 5432 5431 5428 5427 5425 5424 5424
5708 5703 5698 5692 5685 5678 5669 5660 5651 5643 5635 5626 5618 5609 5599 5589 5578 5566 5556 5545 5534 5523 5513 5505 5495 5482 5471 5460 5451 5445 5439 5434 5430 5427 5425 5423 5421 5418 5415 5412 5410 5409 5409
5697 5692 5686 5680 5673 5663 5654 5645 5637 5629 5622 5612 5601 5592 5581 5571 5560 5549 5539 5529 5519 5508 5499 5490 5478 5468 5457 5445 5438 5432 5426 5421 5418 5416 5413 5411 5409 5405 5401 5398 5396 5395 5395
5686 5681 5674 5667 5658 5649 5640 5632 5624 5615 5605 5595 5584 5574 5564 5554 5543 5532 5522 5513 5502 5492 5482 5473 5465 5454 5443 5433 5427 5420 5415 5411 5407 5404 5402 5399 5395 5392 5389 5386 5384 5383 5383
5672 5664 5658 5651 5642 5634 5626 5617 5608 5598 5589 5579 5569 5558 5548 5537 5527 5516 5506 5496 5487 5477 5467 5458 5449 5439 5429 5422 5416 5411 5406 5400 5398 5394 5391 5387 5384 5381 5377 5374 5373 5371 5371
5661 5653 5645 5637 5628 5619 5610 5601 5592 5583 5573 5563 5551 5541 5530 5520 5510 5499 5490 5480 5470 5462 5453 5444 5434 5425 5416 5410 5405 5400 5396 5392 5389 5384 5381 5377 5373 5369 5366 5364 5362 5362 5361
5648 5639 5631 5621 5612 5603 5595 5587 5578 5569 5558 5546 5536 5524 5512 5502 5491 5481 5472 5465 5455 5445 5437 5428 5419 5411 5405 5400 5395 5390 5386 5383 5381 5376 5374 5370 5363 5358 5355 5353 5353 5353 5353
5633 5624 5615 5607 5598 5589 5581 5571 5561 5552 5542 5530 5518 5505 5494 5483 5472 5464 5456 5448 5439 5429 5420 5411 5405 5398 5394 5389 5385 5381 5377 5374 5370 5366 5365 5363 5355 5349 5346 5344 5343 5343 5343
5617 5609 5602 5593 5585 5574 5564 5554 5544 5534 5524 5512 5500 5487 5475 5466 5454 5445 5440 5431 5421 5412 5403 5396 5390 5385 5381 5378 5375 5371 5368 5365 5362 5357 5355 5354 5347 5342 5337 5335 5334 5335 5333
5604 5596 5587 5578 5569 5558 5546 5535 5525 5516 5505 5495 5482 5468 5455 5446 5437 5427 5421 5412 5403 5394 5386 5381 5376 5372 5370 5367 5365 5362 5359 5356 5354 5350 5345 5343 5338 5335 5328 5326 5326 5326 5323
5589 5581 5572 5562 5552 5542 5529 5518 5505 5495 5486 5475 5465 5452 5438 5424 5417 5408 5399 5391 5385 5376 5371 5366 5362 5360 5358 5357 5355 5353 5350 5348 5345 5343 5338 5336 5330 5327 5324 5317 5317 5316 5314